www.pogodaiklimat.ru

ПОГОДА в Головине, AK

  • Прогноз погоды в Головине
  • Монитор погоды в Головине
  • Климат в Головине

АРХИВ ПОГОДЫ в Головине

Время (UTC), дата Ветер
(напр.,м/с)
 
Видим.   Явления Облачность Т
(С)
Тd
(С)
f
(%)
Тe
(С)
Тes
(С)
Комфортность

P
(гПа)

Po
(гПа)
Тmin
(С)
Tmax
(С)
R
(мм)
SD
(см)
20:56 25.03 ЮВ  17
{20} 
13 км  слабый дождь  10/10 600 м  +2.2  +0.6  89  -7  -7    1006.0  1005.4         
21:53 25.03 ЮВ  16
{18} 
4 км  слабый дождь, дымка  10/10 330 м  +2.0  +1.0  93  -8  -8      1005.0         
21:56 25.03 ЮВ  16
{18} 
3 км  слабый дождь, дымка  10/10 330 м  +2.2  +0.6  89  -7  -7    1005.9  1005.0         
22:09 25.03 ЮВ  15
{19} 
8 км  слабый дождь, дымка  10/10 510 м  +2.0  +1.0  93  -7  -7      1005.0         
22:33 25.03 ЮВ  14
{18} 
4 км  слабый дождь, дымка  10/10 510 м  +2.0  +1.0  93  -7  -7      1005.0         
22:40 25.03 ЮВ  16
{17} 
6 км  слабый дождь, дымка  10/10 510 м  +2.0  +1.0  93  -8  -8      1005.0         
22:53 25.03 ЮВ  14
{17} 
3 км  слабый дождь, дымка  10/10 510 м  +2.0  +1.0  93  -7  -7      1005.0         
23:30 25.03 ЮВ  14  6 км  слабый дождь, дымка  10/10 450 м  +2.0  +1.0  93  -7  -7      1005.0         
23:41 25.03 ЮВ  14
{17} 
4 км  слабый дождь, дымка  10/10 390 м  +2.0  +1.0  93  -7  -7      1005.0         
23:56 25.03 ЮВ  13
{16} 
5 км  слабый дождь, дымка  10/10 390 м  +1.7  +1.1  96  -8  -8    1005.7  1005.0         
00:25 26.03 ЮВ  13
{15} 
4 км  слабый дождь, дымка  10/10 390 м  +2.0  +2.0  100  -7  -7      1005.0         
00:40 26.03 Ю  13
{16} 
6 км  слабый дождь, дымка  10/10 330 м  +2.0  +2.0  100  -7  -7      1005.0         
01:22 26.03 Ю  11  4 км  слабый дождь, дымка  10/10 270 м  +2.0  +1.0  93  -6  -6      1005.4         
01:56 26.03 ЮВ  11  4 км  слабый дождь, дымка  10/10 210 м  +1.7  +1.1  96  -7  -7    1005.7  1005.0      0.5   
02:11 26.03 ЮВ  11  3 км  слабый дождь, дымка  10/10 210 м  +2.0  +1.0  93  -6  -6      1005.0         
02:21 26.03 ЮВ  11  4 км  слабый дождь, дымка  10/10 210 м  +2.0  +1.0  93  -6  -6      1005.0         
02:44 26.03 Ю  10  6 км  слабый дождь, дымка  10/10 210 м  +2.0  +1.0  93  -6  -6      1005.4         
02:56 26.03 Ю  13  6 км  слабый дождь, дымка  10/10 270 м  +2.2  +1.7  96  -7  -7    1005.7  1005.0         
03:56 26.03 Ю  12  6 км  слабый дождь, дымка  10/10 270 м  +1.7  +1.1  96  -7  -7    1006.3  1005.7         
04:56 26.03 Ю  16 км    10/10 210 м  +0.6  0.0  96  -7  -7    1007.4  1006.7  +0.6  +2.2  0.8   
05:10 26.03 Ю  16 км  слабый дождь  10/10 150 м  +1.0  0.0  93  -7  -7      1006.7         
05:35 26.03 Ю  16 км  слабый дождь  10/10 210 м  +1.0  0.0  93  -6  -6      1007.1         
05:56 26.03 Ю  16 км    10/10 210 м  +0.6  0.0  96  -7  -7    1007.7  1007.1         
06:56 26.03 Ю  16 км    10/10 210 м  +0.6  0.0  96  -7  -7    1008.4  1007.7         
07:56 26.03 Ю  16 км    10/10 210 м  +0.6  0.0  96  -7  -7    1008.9  1008.1         
08:56 26.03 Ю  16 км    10/10 270 м  +0.6  0.0  96  -7  -7    1009.6  1008.7         
09:34 26.03 Ю  16 км    10/5 270 м
[средняя] 
+1.0  -1.0  86  -6  -6      1009.4         
09:56 26.03 Ю  16 км    10/8 270 м
[средняя] 
+0.6  -0.6  92  -7  -7    1010.4  1009.8         
10:49 26.03 Ю  16 км    5/5 270 м  0.0  -1.0  93  -8  -8      1010.4         
10:56 26.03 Ю  16 км    5/5 270 м  0.0  -0.6  96  -8  -8    1011.1  1010.4  0.0  +0.6     
11:14 26.03 Ю  16 км    8/8 330 м  0.0  -1.0  93  -7  -7      1010.4         
11:26 26.03 Ю  16 км    8/8 270 м  0.0  -1.0  93  -8  -8      1010.4         
11:40 26.03 Ю  16 км    5/5 270 м  0.0  -1.0  93  -8  -8      1010.4         
11:56 26.03 Ю  16 км    ясно  0.0  -0.6  96  -9  -9    1011.1  1010.4         
12:56 26.03 Ю  14 км    ясно  0.0  -1.1  92  -8  -8    1011.5  1010.8         
13:35 26.03 Ю  13 км    8/8 300 м  -1.0  -1.0  100  -9  -9      1011.1         
13:56 26.03 Ю  13 км    10/10 300 м  -0.6  -1.1  96  -9  -9    1011.9  1011.1         
14:29 26.03 Ю  11 км    10/10 240 м  -1.0  -1.0  100  -9  -9      1011.5         
14:56 26.03 Ю  11 км    10/10 240 м  -0.6  -1.1  96  -8  -8    1012.3  1011.5         
15:48 26.03 Ю  10 км  дымка  10/10 240 м  -1.0  -1.0  100  -8  -8      1012.1         
16:27 26.03 Ю  10 км  дымка  10/10 300 м  -1.0  -1.0  100  -8  -8      1012.5         
16:56 26.03 Ю  10 км  дымка  10/10 300 м  0.0  -1.1  92  -7  -7    1013.4  1012.8  -1.1  0.0     
17:10 26.03 Ю  10 км  дымка  10/10 300 м  0.0  -1.0  93  -8  -8      1012.8         
17:37 26.03 Ю  10 км  дымка  10/10 300 м  0.0  -1.0  93  -8  -8      1012.8         
17:56 26.03 Ю  10 км  дымка  10/10 300 м  0.0  -1.1  92  -8  -8    1013.8  1013.1         
18:03 26.03 Ю  10 км  дымка  10/10 240 м  0.0  -1.0  93  -8  -8      1013.1         
18:56 26.03 Ю  10 км  дымка  10/10 240 м  0.0  -1.1  92  -9  -9    1014.2  1013.5         
19:56 26.03 Ю  10 км  дымка  10/10 240 м  0.0  -1.1  92  -7  -7    1015.1  1014.5         

 

Местоположение метеостанции Golovin Airport: широта 64.5433 долгота -163.0394 высота над уровнем моря 8 м.

В архиве по умолчанию представлена погода в Головине за последние 1-2 суток. Обновление информации о фактической погоде в базе происходит ежечасно! Архивные данные за месяц целиком и за предыдущие месяцы Вы можете получить, выбрав интересующий диапазон дат из раскрывающегося списка и нажав кнопку "Ввод!".

Внимание! Архив погоды МЕТАР в базе сайта хранится не более 60 дней. Нет смысла пытаться выбрать более раннюю дату.

Внимание! Время в таблицах - всемирное. Для получения местного времени необходимо прибавить поправку, которая в Головине равна -9 ч.

Ветер - указаны скорость ветра в м/с и направление, откуда дует ветер: С - северный, СВ - северо-восточный, В - восточный, ЮВ - юго-восточный, Ю - южный, ЮЗ - юго-западный, З - западный, СЗ - северо-западный.
Видимость - горизонтальная дальность видимости в метрах или километрах. При видимости от 1 до 10 км при отсутствии осадков обычно наблюдается дымка, при ухудшении видимости до 1 км и менее - туман. В сухую погоду видимость может ухудшаться дымом, пылью или мглою.
Атмосферные явления - указаны явления, наблюдавшиеся в указанный момент времени.
Облачность - указаны через наклонную черту верхняя и нижняя облачность в баллах и высота нижней границы облаков в метрах. Внимание: облачность, как и прочие метеорологические величины в США измеряются автоматическими метеостанциями. Указанные значения в баллах носят условный характер и показывают процент времени, в течение которого, в среднем, лазерный луч высотомера отражался от облаков обратно.
T - Температура воздуха - температура, измеренная на высоте 2 м над землей.
Td - Температура точки росы - температура, при понижении до которой содержащийся в воздухе водяной пар достигнет насыщения.
f - Относительная влажность воздуха - влажноcть воздуха, измеренная на высоте 2 м над землей.
Te - Эффективная температура - температура, которую ощущает одетый по сезону человек в тени. Характеристика душности погоды. При расчете учитывается влияние влажности воздуха и скорости ветра на теплоощущения человека.
Tes - Эффективная температура на солнце - температура, которую ощущает человек, с поправкой на солнечный нагрев. Характеристика знойности погоды. Зависит от высоты солнца над горизонтом, облачности и скорости ветра. Ночью, в пасмурную погоду, а также при ветре 12 м/с и более поправка равна нулю.
P - Атмосферное давление - приведенное к уровню моря атмосферное давление.
Po - Атмосферное давление - измеренное на уровне метеостанции атмосферное давление.
Tmin - Минимальная температура - минимум температуры воздуха на высоте 2 м над землей.
Tmax - Максимальная температура - максимум температуры воздуха на высоте 2 м над землей.
R - Количество осадков - Количество выпавших осадков за 3 или 6 часов, мм.
SD - Снежный покров - Высота снежного покрова, см.